FW7576 Weather Reports


Display with metric or nautical units.
time (UTC)temp
F
wind
direction
speed
MPH
gust
MPH
rain 1hr
in
rain 24hr
in
rain mn
in
humidity
%
barometer
mb
20260901040045 77 250 3.0 5.0 0.00 0.16 0.16 85 1013.7
20260901034540 77 252 3.0 6.0 0.00 0.16 0.16 85 1013.7
20260901033040 77 241 2.0 5.0 0.00 0.16 0.16 85 1013.9
20260901031544 77 257 2.0 5.0 0.00 0.16 0.16 85 1013.8
20260901030051 78 232 0.0 2.0 0.00 0.16 0.16 85 1013.8
20260901024543 78 252 0.0 5.0 0.00 0.16 0.16 84 1013.9
20260901023050 79 231 3.0 5.0 0.00 0.16 0.16 83 1013.9
20260901021549 79 264 3.0 5.0 0.00 0.16 0.16 83 1014.0
20260901020042 79 244 2.0 6.0 0.00 0.16 0.16 82 1013.7
20260901014549 80 252 1.0 3.0 0.00 0.16 0.16 81 1013.5
20260901013045 80 245 2.0 6.0 0.00 0.16 0.16 80 1013.6
20260901011542 81 278 2.0 7.0 0.00 0.16 0.16 79 1013.4
20260901010046 81 249 1.0 7.0 0.00 0.16 0.16 78 1013.0
20260901004551 81 205 2.0 9.0 0.00 0.16 0.16 77 1013.0
20260901003042 82 250 2.0 9.0 0.00 0.16 0.16 76 1013.0
20260901001545 82 258 2.0 6.0 0.00 0.16 0.16 76 1012.9
20260901000048 82 243 1.0 8.0 0.00 0.16 0.16 75 1012.9
20260831234545 82 223 2.0 12.0 0.00 0.16 0.16 74 1012.8
20260831233049 82 224 2.0 8.0 0.00 0.16 0.16 74 1012.7
20260831231547 83 224 2.0 11.0 0.00 0.16 0.16 74 1012.6
20260831230044 83 234 5.0 12.0 0.00 0.16 0.16 73 1012.7
20260831224551 83 265 4.0 13.0 0.00 0.16 0.16 74 1012.5
20260831223044 83 245 4.0 10.0 0.00 0.16 0.16 73 1012.3
20260831221540 84 220 2.0 11.0 0.00 0.16 0.16 72 1012.4
20260831220050 84 231 4.0 11.0 0.00 0.16 0.16 71 1012.4
20260831214546 84 268 4.0 14.0 0.00 0.16 0.16 70 1012.3
20260831213041 84 255 7.0 13.0 0.00 0.16 0.16 70 1012.7
20260831211548 84 235 4.0 9.0 0.00 0.16 0.16 71 1012.6
20260831210047 83 233 5.0 9.0 0.00 0.16 0.16 70 1012.1
20260831204543 83 253 3.0 8.0 0.00 0.16 0.16 70 1012.0
20260831203042 83 271 5.0 12.0 0.00 0.16 0.16 69 1012.2
20260831201541 84 258 4.0 9.0 0.00 0.16 0.16 67 1012.5
20260831200040 85 268 4.0 14.0 0.00 0.16 0.16 66 1012.2
20260831194603 86 262 6.0 12.0 0.00 0.16 0.16 63 1012.3
20260831193041 86 264 6.0 15.0 0.00 0.16 0.16 60 1012.2
20260831191544 87 212 5.0 19.0 0.00 0.16 0.16 61 1012.3
20260831190045 86 264 3.0 7.0 0.00 0.16 0.16 65 1012.2
20260831184541 85 233 5.0 12.0 0.00 0.16 0.16 66 1012.3
20260831183047 84 207 4.0 13.0 0.00 0.16 0.16 68 1012.5
20260831181544 84 238 6.0 12.0 0.00 0.16 0.16 66 1012.7
20260831180050 84 193 4.0 10.0 0.00 0.16 0.16 66 1012.7
20260831174550 84 246 5.0 15.0 0.00 0.16 0.16 65 1012.9
20260831173045 84 207 5.0 14.0 0.00 0.16 0.16 64 1012.8
20260831171546 84 219 3.0 12.0 0.00 0.16 0.16 66 1012.9
20260831170044 83 230 4.0 16.0 0.00 0.16 0.16 67 1013.0
20260831164549 82 229 7.0 13.0 0.00 0.16 0.16 67 1013.2
20260831163043 81 241 4.0 10.0 0.00 0.16 0.16 70 1013.1
20260831161549 79 259 3.0 12.0 0.00 0.16 0.16 73 1013.1
20260831160048 79 191 5.0 14.0 0.00 0.16 0.16 72 1013.2
20260831154610 78 195 4.0 11.0 0.00 0.16 0.16 73 1013.5
20260831153043 78 190 3.0 10.0 0.00 0.16 0.16 74 1013.6
20260831151542 77 203 2.0 6.0 0.00 0.16 0.16 76 1013.3
20260831150044 76 233 3.0 7.0 0.00 0.16 0.16 77 1013.5
20260831144542 75 222 2.0 7.0 0.00 0.16 0.16 78 1013.3
20260831143050 75 179 2.0 6.0 0.00 0.16 0.16 80 1013.4
20260831141551 74 206 2.0 7.0 0.00 0.16 0.16 81 1013.3
20260831140043 73 219 2.0 5.0 0.00 0.16 0.16 81 1013.3
20260831134545 73 198 3.0 6.0 0.00 0.16 0.16 83 1013.3
20260831133044 72 208 2.0 7.0 0.00 0.16 0.16 84 1013.3
20260831131551 72 176 3.0 6.0 0.00 0.16 0.16 84 1013.2
20260831130045 71 195 2.0 6.0 0.00 0.16 0.16 85 1013.1
20260831124544 71 221 2.0 7.0 0.00 0.17 0.16 86 1013.5
20260831123043 70 204 2.0 5.0 0.01 0.17 0.16 87 1013.5
20260831121545 70 0 1.0 6.0 0.01 0.17 0.16 87 1013.4
20260831120053 70 210 2.0 5.0 0.01 0.17 0.16 87 1013.5
20260831114543 70 182 2.0 6.0 0.02 0.19 0.16 87 1013.6
20260831113048 70 186 1.0 3.0 0.02 0.18 0.15 87 1013.7
20260831111545 70 182 1.0 2.0 0.06 0.18 0.15 87 1013.6
20260831110043 70 152 0.0 4.0 0.14 0.18 0.15 87 1013.6
20260831104541 69 188 1.0 2.0 0.14 0.32 0.14 87 1013.7
20260831103044 70 203 2.0 3.0 0.13 0.31 0.13 87 1014.2
20260831101544 70 0 0.0 3.0 0.09 0.27 0.09 87 1014.7
20260831100045 70 290 0.0 2.0 0.01 0.19 0.01 87 1014.8
20260831094541 70 0 0.0 0.0 0.00 0.26 0.00 87 1013.8
20260831093049 70 0 0.0 2.0 0.00 0.26 0.00 87 1013.6
20260831091545 70 0 0.0 0.0 0.00 0.26 0.00 87 1013.9
20260831090043 70 0 0.0 1.0 0.00 0.26 0.00 87 1013.9
20260831084544 70 0 0.0 1.0 0.00 0.29 0.00 87 1013.9
20260831083045 70 0 0.0 1.0 0.00 0.29 0.00 87 1013.7
20260831081543 70 119 0.0 1.0 0.00 0.29 0.00 87 1013.8
20260831080048 70 0 0.0 1.0 0.00 0.29 0.00 87 1013.8
20260831074545 70 0 0.0 1.0 0.00 0.31 0.00 87 1014.1
20260831073050 70 0 0.0 0.0 0.00 0.31 0.00 87 1014.4
20260831071542 70 0 0.0 0.0 0.00 0.31 0.00 87 1014.6
20260831070048 70 0 0.0 0.0 0.00 0.31 0.00 87 1014.8
20260831064544 71 0 0.0 0.0 0.00 0.31 0.00 87 1014.9
20260831063040 71 0 0.0 0.0 0.00 0.31 0.00 87 1015.1
20260831061542 71 0 0.0 1.0 0.00 0.31 0.00 87 1015.1
20260831060054 71 0 0.0 0.0 0.00 0.31 0.00 87 1015.2
20260831054544 72 0 0.0 1.0 0.00 0.31 0.00 86 1015.1
20260831053047 72 0 0.0 1.0 0.00 0.31 0.00 86 1015.1
20260831051552 72 0 0.0 0.0 0.00 0.31 0.00 85 1015.0
20260831050045 72 0 0.0 1.0 0.00 0.31 0.00 85 1015.1
20260831044551 73 0 1.0 5.0 0.00 0.31 0.31 85 1015.1
20260831043047 73 275 0.0 5.0 0.00 0.31 0.31 84 1014.9
20260831041635 73 274 2.0 6.0 0.00 0.31 0.31 84 1014.4